Location: St. Louis
(38.6270°N, 90.1994°W)
Time: 00:24:23
(UTC-05:00)

ISS - Pass Details

Date: 07 April 2014
Orbit: 401 x 404 km, 51.6° (Epoch: 29 July)

Event Time Altitude Azimuth Distance (km) Brightness Sun altitude
Rises 21:01:57 0° 245° (WSW) 2,344 1.1 -17.9°
Reaches altitude 10° 21:04:06 10° 252° (WSW) 1,483 0.2 -18.3°
Maximum altitude 21:07:18 44° 326° (NW) 586 -2.2 -18.9°
Enters shadow 21:09:27 18° 32° (NNE) 1,087 -1.2 -19.2°
